Wetterdaten: Sonntag, 17.04.2016
Datum Zeit Auen-Temp. Temp gefhlt Luftfeuchte Luftdruck Regen Wind Richtung Richtung Sonnenschein Taupunkt Windben
17.04.2016 00:00 6,4 C 6,3 C 85 % 1005,6 hPa 0,0 mm 0,3 km/h (0 Bft) NW 315 0 min 4,1 C 0,0 km/h (0 Bft)
17.04.2016 00:05 6,3 C 6,2 C 85 % 1005,6 hPa 0,0 mm 0,3 km/h (0 Bft) O-SO 112 0 min 4,0 C 0,0 km/h (0 Bft)
17.04.2016 00:10 6,6 C 6,4 C 86 % 1005,4 hPa 0,0 mm 0,3 km/h (0 Bft) O-NO 67 0 min 4,4 C 0,0 km/h (0 Bft)
17.04.2016 00:15 6,5 C 6,3 C 87 % 1005,4 hPa 0,0 mm 0,0 km/h (0 Bft) N-NO 22 0 min 4,5 C 0,0 km/h (0 Bft)
17.04.2016 00:20 6,3 C 6,2 C 87 % 1005,4 hPa 0,0 mm 0,0 km/h (0 Bft) N-NW 337 0 min 4,3 C 0,0 km/h (0 Bft)
17.04.2016 00:25 6,1 C 6,0 C 86 % 1005,4 hPa 0,0 mm 0,0 km/h (0 Bft) W 270 0 min 3,9 C 0,0 km/h (0 Bft)
17.04.2016 00:30 6,1 C 6,0 C 86 % 1004,9 hPa 0,0 mm 1,8 km/h (1 Bft) NO 45 0 min 3,9 C 3,3 km/h (1 Bft)
17.04.2016 00:35 6,0 C 5,9 C 87 % 1004,9 hPa 0,0 mm 2,1 km/h (1 Bft) SO 135 0 min 4,0 C 15,2 km/h (3 Bft)
17.04.2016 00:40 5,8 C 5,7 C 87 % 1004,9 hPa 0,0 mm 0,6 km/h (0 Bft) W-NW 292 0 min 3,8 C 5,1 km/h (1 Bft)
17.04.2016 00:45 5,8 C 5,7 C 87 % 1004,9 hPa 0,0 mm 1,5 km/h (1 Bft) W-SW 247 0 min 3,8 C 5,1 km/h (1 Bft)
17.04.2016 00:50 5,8 C 5,7 C 87 % 1004,6 hPa 0,0 mm 1,5 km/h (1 Bft) O-NO 67 0 min 3,8 C 0,0 km/h (0 Bft)
17.04.2016 00:55 6,2 C 6,0 C 87 % 1004,6 hPa 0,0 mm 1,5 km/h (1 Bft) W-SW 247 0 min 4,2 C 5,7 km/h (1 Bft)
17.04.2016 00:58 6,4 C 6,2 C 88 % 1004,6 hPa 0,0 mm 2,1 km/h (1 Bft) W 270 0 min 4,6 C 0,0 km/h (0 Bft)
17.04.2016 01:00 6,4 C 6,2 C 88 % 1004,6 hPa 0,0 mm 2,1 km/h (1 Bft) W 270 0 min 4,6 C 0,0 km/h (0 Bft)
17.04.2016 01:05 6,5 C 6,3 C 89 % 1004,6 hPa 0,0 mm 2,1 km/h (1 Bft) S-SO 157 0 min 4,8 C 6,3 km/h (2 Bft)
17.04.2016 01:10 6,3 C 6,2 C 89 % 1004,5 hPa 0,0 mm 1,5 km/h (1 Bft) NO 45 0 min 4,6 C 3,6 km/h (1 Bft)
17.04.2016 01:15 6,2 C 6,1 C 89 % 1004,5 hPa 0,0 mm 2,7 km/h (1 Bft) S-SW 202 0 min 4,5 C 6,0 km/h (2 Bft)
17.04.2016 01:20 6,3 C 6,2 C 89 % 1004,5 hPa 0,0 mm 3,6 km/h (1 Bft) S-SW 202 0 min 4,6 C 6,9 km/h (2 Bft)
17.04.2016 01:25 5,9 C 5,9 C 85 % 1004,5 hPa 0,0 mm 2,4 km/h (1 Bft) SW 225 0 min 3,6 C 0,0 km/h (0 Bft)
17.04.2016 01:30 5,9 C 6,0 C 85 % 1004,4 hPa 0,0 mm 1,5 km/h (1 Bft) SO 135 0 min 3,6 C 0,0 km/h (0 Bft)
17.04.2016 01:35 5,8 C 5,8 C 85 % 1004,4 hPa 0,0 mm 2,4 km/h (1 Bft) SW 225 0 min 3,5 C 6,9 km/h (2 Bft)
17.04.2016 01:40 6,1 C 6,0 C 89 % 1004,4 hPa 0,0 mm 3,0 km/h (1 Bft) S-SW 202 0 min 4,4 C 0,0 km/h (0 Bft)
17.04.2016 01:45 6,0 C 5,9 C 89 % 1004,4 hPa 0,0 mm 3,3 km/h (1 Bft) SO 135 0 min 4,3 C 3,3 km/h (1 Bft)
17.04.2016 01:50 6,0 C 6,0 C 85 % 1003,9 hPa 0,0 mm 3,9 km/h (1 Bft) O-SO 112 0 min 3,7 C 0,0 km/h (0 Bft)
17.04.2016 01:55 5,3 C 5,6 C 90 % 1003,9 hPa 0,0 mm 3,3 km/h (1 Bft) S-SO 157 0 min 3,8 C 0,0 km/h (0 Bft)
17.04.2016 02:00 5,8 C 5,9 C 86 % 1003,9 hPa 0,0 mm 3,9 km/h (1 Bft) S-SO 157 0 min 3,6 C 7,7 km/h (2 Bft)
17.04.2016 02:05 5,9 C 5,8 C 91 % 1003,9 hPa 0,0 mm 4,8 km/h (1 Bft) SW 225 0 min 4,5 C 7,7 km/h (2 Bft)
17.04.2016 02:10 6,1 C 6,0 C 90 % 1003,9 hPa 0,0 mm 4,5 km/h (1 Bft) N-NW 337 0 min 4,6 C 0,0 km/h (0 Bft)
17.04.2016 02:15 5,9 C 5,9 C 91 % 1003,9 hPa 0,0 mm 3,0 km/h (1 Bft) W-SW 247 0 min 4,5 C 3,0 km/h (1 Bft)
17.04.2016 02:20 5,4 C 5,7 C 91 % 1003,9 hPa 0,0 mm 1,5 km/h (1 Bft) S 180 0 min 4,1 C 0,0 km/h (0 Bft)
17.04.2016 02:25 5,4 C 5,5 C 86 % 1003,9 hPa 0,0 mm 1,5 km/h (1 Bft) W-SW 247 0 min 3,3 C 0,0 km/h (0 Bft)
17.04.2016 02:30 5,4 C 5,4 C 90 % 1003,9 hPa 0,0 mm 1,5 km/h (1 Bft) SO 135 0 min 3,9 C 0,0 km/h (0 Bft)
17.04.2016 02:35 5,7 C 5,6 C 91 % 1003,9 hPa 0,0 mm 1,2 km/h (1 Bft) S-SW 202 0 min 4,3 C 0,0 km/h (0 Bft)
17.04.2016 02:40 6,1 C 5,9 C 85 % 1003,9 hPa 0,0 mm 1,2 km/h (1 Bft) SO 135 0 min 3,8 C 5,7 km/h (1 Bft)
17.04.2016 02:45 6,2 C 6,0 C 90 % 1003,9 hPa 0,0 mm 1,2 km/h (1 Bft) O 90 0 min 4,7 C 5,1 km/h (1 Bft)
17.04.2016 02:50 6,2 C 6,0 C 90 % 1003,8 hPa 0,0 mm 1,5 km/h (1 Bft) W-SW 247 0 min 4,7 C 3,3 km/h (1 Bft)
17.04.2016 02:55 6,2 C 6,1 C 91 % 1003,8 hPa 0,0 mm 1,5 km/h (1 Bft) SW 225 0 min 4,8 C 0,0 km/h (0 Bft)
17.04.2016 03:00 6,4 C 6,2 C 91 % 1003,8 hPa 0,0 mm 0,9 km/h (0 Bft) W-SW 247 0 min 5,0 C 4,2 km/h (1 Bft)
17.04.2016 03:05 6,5 C 6,3 C 91 % 1003,8 hPa 0,0 mm 1,2 km/h (1 Bft) S-SW 202 0 min 5,1 C 0,0 km/h (0 Bft)
17.04.2016 03:10 6,5 C 6,3 C 91 % 1003,9 hPa 0,0 mm 1,5 km/h (1 Bft) O-SO 112 0 min 5,1 C 0,0 km/h (0 Bft)
17.04.2016 03:15 6,6 C 6,4 C 91 % 1003,9 hPa 0,0 mm 2,1 km/h (1 Bft) NW 315 0 min 5,2 C 14,6 km/h (3 Bft)
17.04.2016 03:20 7,0 C 6,7 C 91 % 1003,9 hPa 0,0 mm 3,6 km/h (1 Bft) W-NW 292 0 min 5,6 C 11,9 km/h (2 Bft)
17.04.2016 03:25 7,4 C 7,0 C 91 % 1003,9 hPa 0,0 mm 7,5 km/h (2 Bft) S-SW 202 0 min 6,0 C 11,0 km/h (2 Bft)
17.04.2016 03:30 7,6 C 7,1 C 91 % 1004,2 hPa 0,0 mm 9,2 km/h (2 Bft) W-SW 247 0 min 6,2 C 15,5 km/h (3 Bft)
17.04.2016 03:35 8,0 C 7,4 C 90 % 1004,2 hPa 0,0 mm 11,6 km/h (2 Bft) NW 315 0 min 6,5 C 24,7 km/h (4 Bft)
17.04.2016 03:40 8,3 C 7,6 C 90 % 1004,2 hPa 0,0 mm 12,2 km/h (2 Bft) W-SW 247 0 min 6,8 C 21,8 km/h (4 Bft)
17.04.2016 03:45 8,5 C 7,7 C 90 % 1004,2 hPa 0,0 mm 13,1 km/h (3 Bft) W 270 0 min 7,0 C 33,4 km/h (5 Bft)
17.04.2016 03:50 8,5 C 7,8 C 89 % 1004,5 hPa 0,0 mm 12,5 km/h (3 Bft) W 270 0 min 6,8 C 18,2 km/h (3 Bft)
17.04.2016 03:55 8,7 C 7,9 C 88 % 1004,5 hPa 0,0 mm 12,2 km/h (2 Bft) W-SW 247 0 min 6,8 C 22,9 km/h (4 Bft)
17.04.2016 03:58 8,7 C 7,9 C 87 % 1004,5 hPa 0,0 mm 12,8 km/h (3 Bft) W 270 0 min 6,7 C 22,1 km/h (4 Bft)
17.04.2016 03:59 8,7 C 7,9 C 87 % 1004,5 hPa 0,0 mm 12,8 km/h (3 Bft) W 270 0 min 6,7 C 22,1 km/h (4 Bft)
17.04.2016 04:00 8,7 C 7,9 C 87 % 1004,5 hPa 0,0 mm 12,8 km/h (3 Bft) W 270 0 min 6,7 C 22,1 km/h (4 Bft)
17.04.2016 04:05 8,9 C 8,2 C 85 % 1004,5 hPa 0,0 mm 16,4 km/h (3 Bft) W 270 0 min 6,5 C 36,1 km/h (5 Bft)
17.04.2016 04:10 8,9 C 8,2 C 84 % 1005,1 hPa 0,0 mm 18,5 km/h (3 Bft) W 270 0 min 6,3 C 41,4 km/h (6 Bft)
17.04.2016 04:15 8,8 C 8,2 C 82 % 1005,1 hPa 0,0 mm 19,4 km/h (3 Bft) W 270 0 min 5,9 C 43,8 km/h (6 Bft)
17.04.2016 04:20 8,8 C 8,1 C 82 % 1005,1 hPa 0,0 mm 24,7 km/h (4 Bft) W 270 0 min 5,9 C 27,7 km/h (4 Bft)
17.04.2016 04:25 8,7 C 8,1 C 83 % 1005,1 hPa 0,0 mm 24,4 km/h (4 Bft) W-NW 292 0 min 6,0 C 54,8 km/h (7 Bft)
17.04.2016 04:30 8,7 C 8,1 C 83 % 1006,1 hPa 0,0 mm 22,7 km/h (4 Bft) NW 315 0 min 6,0 C 33,1 km/h (5 Bft)
17.04.2016 04:35 8,6 C 8,1 C 83 % 1006,1 hPa 0,0 mm 23,8 km/h (4 Bft) NW 315 0 min 5,9 C 58,4 km/h (7 Bft)
17.04.2016 04:40 8,5 C 8,0 C 84 % 1006,1 hPa 0,0 mm 22,9 km/h (4 Bft) W-SW 247 0 min 6,0 C 21,5 km/h (4 Bft)
17.04.2016 04:45 8,4 C 7,7 C 84 % 1006,1 hPa 0,0 mm 21,5 km/h (4 Bft) W 270 0 min 5,9 C 17,0 km/h (3 Bft)
17.04.2016 04:50 8,4 C 7,7 C 84 % 1007,0 hPa 0,0 mm 21,5 km/h (4 Bft) W 270 0 min 5,9 C 18,2 km/h (3 Bft)
17.04.2016 04:55 8,4 C 8,0 C 85 % 1007,0 hPa 0,0 mm 19,7 km/h (3 Bft) W-NW 292 0 min 6,0 C 20,9 km/h (4 Bft)
17.04.2016 05:00 8,4 C 8,0 C 85 % 1007,0 hPa 0,0 mm 19,4 km/h (3 Bft) W-NW 292 0 min 6,0 C 35,2 km/h (5 Bft)
17.04.2016 05:05 8,4 C 8,0 C 85 % 1007,0 hPa 0,0 mm 18,5 km/h (3 Bft) W-SW 247 0 min 6,0 C 20,6 km/h (4 Bft)
17.04.2016 05:10 8,4 C 8,0 C 85 % 1006,9 hPa 0,0 mm 16,4 km/h (3 Bft) W-SW 247 0 min 6,0 C 12,2 km/h (2 Bft)
17.04.2016 05:15 8,4 C 8,0 C 85 % 1006,9 hPa 0,0 mm 15,2 km/h (3 Bft) NW 315 0 min 6,0 C 22,7 km/h (4 Bft)
17.04.2016 05:20 8,4 C 8,0 C 85 % 1006,9 hPa 0,0 mm 13,4 km/h (3 Bft) S-SW 202 0 min 6,0 C 11,9 km/h (2 Bft)
17.04.2016 05:25 8,5 C 8,1 C 85 % 1006,9 hPa 0,0 mm 11,3 km/h (2 Bft) SO 135 0 min 6,1 C 7,7 km/h (2 Bft)
17.04.2016 05:30 8,5 C 8,2 C 85 % 1007,3 hPa 0,0 mm 11,3 km/h (2 Bft) W-NW 292 0 min 6,1 C 11,6 km/h (2 Bft)
17.04.2016 05:35 8,5 C 8,2 C 84 % 1007,3 hPa 0,0 mm 10,4 km/h (2 Bft) W-NW 292 0 min 6,0 C 22,1 km/h (4 Bft)
17.04.2016 05:40 8,6 C 8,4 C 84 % 1007,3 hPa 0,0 mm 8,9 km/h (2 Bft) W-NW 292 0 min 6,1 C 7,7 km/h (2 Bft)
17.04.2016 05:45 8,5 C 8,4 C 83 % 1007,3 hPa 0,0 mm 8,0 km/h (2 Bft) W 270 0 min 5,8 C 11,0 km/h (2 Bft)
17.04.2016 05:50 8,5 C 8,4 C 83 % 1007,2 hPa 0,0 mm 7,7 km/h (2 Bft) N-NW 337 0 min 5,8 C 14,9 km/h (3 Bft)
17.04.2016 05:55 8,4 C 8,3 C 83 % 1007,2 hPa 0,0 mm 8,0 km/h (2 Bft) W 270 0 min 5,7 C 8,3 km/h (2 Bft)
17.04.2016 06:00 8,3 C 8,3 C 83 % 1007,2 hPa 0,0 mm 6,9 km/h (2 Bft) W-NW 292 0 min 5,6 C 12,2 km/h (2 Bft)
17.04.2016 06:05 8,3 C 8,2 C 83 % 1007,2 hPa 0,0 mm 6,6 km/h (2 Bft) W-NW 292 0 min 5,6 C 4,5 km/h (1 Bft)
17.04.2016 06:10 8,2 C 8,2 C 83 % 1007,4 hPa 0,0 mm 3,3 km/h (1 Bft) W-SW 247 0 min 5,5 C 0,0 km/h (0 Bft)
17.04.2016 06:15 8,1 C 8,0 C 83 % 1007,4 hPa 0,0 mm 0,6 km/h (0 Bft) W 270 0 min 5,4 C 0,0 km/h (0 Bft)
17.04.2016 06:20 8,0 C 7,9 C 83 % 1007,4 hPa 0,0 mm 0,9 km/h (0 Bft) W-SW 247 0 min 5,3 C 8,0 km/h (2 Bft)
17.04.2016 06:25 8,0 C 7,8 C 83 % 1007,4 hPa 0,0 mm 3,3 km/h (1 Bft) S 180 0 min 5,3 C 5,4 km/h (1 Bft)
17.04.2016 06:30 8,0 C 7,8 C 83 % 1007,8 hPa 0,0 mm 4,2 km/h (1 Bft) W-NW 292 0 min 5,3 C 8,9 km/h (2 Bft)
17.04.2016 06:35 7,9 C 7,7 C 84 % 1007,8 hPa 0,0 mm 3,3 km/h (1 Bft) S-SW 202 0 min 5,4 C 0,0 km/h (0 Bft)
17.04.2016 06:40 7,8 C 7,6 C 84 % 1007,8 hPa 0,0 mm 3,6 km/h (1 Bft) SW 225 0 min 5,3 C 3,9 km/h (1 Bft)
17.04.2016 06:45 7,8 C 7,6 C 85 % 1007,8 hPa 0,0 mm 3,3 km/h (1 Bft) W 270 0 min 5,4 C 4,2 km/h (1 Bft)
17.04.2016 06:50 7,8 C 7,6 C 85 % 1007,9 hPa 0,0 mm 3,0 km/h (1 Bft) S 180 0 min 5,4 C 3,0 km/h (1 Bft)
17.04.2016 06:55 7,8 C 7,6 C 85 % 1007,9 hPa 0,0 mm 1,8 km/h (1 Bft) S 180 0 min 5,4 C 5,1 km/h (1 Bft)
17.04.2016 06:58 7,7 C 7,5 C 86 % 1007,9 hPa 0,0 mm 1,8 km/h (1 Bft) O-SO 112 0 min 5,5 C 0,0 km/h (0 Bft)
17.04.2016 07:00 7,7 C 7,5 C 86 % 1007,9 hPa 0,0 mm 1,8 km/h (1 Bft) O-SO 112 0 min 5,5 C 0,0 km/h (0 Bft)
17.04.2016 07:05 7,8 C 7,6 C 86 % 1007,9 hPa 0,0 mm 2,4 km/h (1 Bft) S 180 0 min 5,6 C 5,7 km/h (1 Bft)
17.04.2016 07:10 7,8 C 7,6 C 86 % 1007,8 hPa 0,0 mm 3,3 km/h (1 Bft) SW 225 0 min 5,6 C 6,6 km/h (2 Bft)
17.04.2016 07:15 7,9 C 7,7 C 85 % 1007,8 hPa 0,0 mm 3,3 km/h (1 Bft) S 180 0 min 5,5 C 0,0 km/h (0 Bft)
17.04.2016 07:20 7,9 C 7,7 C 85 % 1007,8 hPa 0,0 mm 3,6 km/h (1 Bft) S-SW 202 0 min 5,5 C 4,2 km/h (1 Bft)
17.04.2016 07:25 8,0 C 7,8 C 85 % 1007,8 hPa 0,0 mm 4,5 km/h (1 Bft) SW 225 0 min 5,6 C 10,4 km/h (2 Bft)
17.04.2016 07:30 8,1 C 7,9 C 85 % 1007,8 hPa 0,0 mm 5,1 km/h (1 Bft) W-SW 247 0 min 5,7 C 6,6 km/h (2 Bft)
17.04.2016 07:35 8,3 C 8,1 C 83 % 1007,8 hPa 0,0 mm 7,2 km/h (2 Bft) NO 45 0 min 5,6 C 6,3 km/h (2 Bft)
17.04.2016 07:40 8,4 C 8,2 C 83 % 1007,8 hPa 0,0 mm 7,7 km/h (2 Bft) W-SW 247 0 min 5,7 C 8,9 km/h (2 Bft)
17.04.2016 07:45 8,5 C 8,4 C 82 % 1007,8 hPa 0,0 mm 7,7 km/h (2 Bft) NW 315 0 min 5,6 C 11,6 km/h (2 Bft)
17.04.2016 07:50 8,6 C 8,4 C 81 % 1007,9 hPa 0,0 mm 8,6 km/h (2 Bft) W 270 0 min 5,5 C 19,7 km/h (3 Bft)
17.04.2016 07:55 8,6 C 8,5 C 80 % 1007,9 hPa 0,0 mm 7,7 km/h (2 Bft) W 270 0 min 5,3 C 7,5 km/h (2 Bft)
17.04.2016 08:00 8,7 C 8,7 C 80 % 1007,9 hPa 0,0 mm 6,9 km/h (2 Bft) N-NW 337 0 min 5,4 C 10,7 km/h (2 Bft)
17.04.2016 08:05 8,7 C 8,7 C 80 % 1007,9 hPa 0,0 mm 5,4 km/h (1 Bft) NW 315 0 min 5,4 C 9,5 km/h (2 Bft)
17.04.2016 08:10 8,8 C 8,8 C 79 % 1008,0 hPa 0,0 mm 7,2 km/h (2 Bft) S 180 0 min 5,4 C 5,1 km/h (1 Bft)
17.04.2016 08:15 8,8 C 8,7 C 79 % 1008,0 hPa 0,0 mm 8,6 km/h (2 Bft) SW 225 0 min 5,4 C 3,3 km/h (1 Bft)
17.04.2016 08:20 8,9 C 8,9 C 78 % 1008,0 hPa 0,0 mm 7,2 km/h (2 Bft) S 180 0 min 5,3 C 9,5 km/h (2 Bft)
17.04.2016 08:25 8,9 C 8,9 C 78 % 1008,0 hPa 0,0 mm 6,9 km/h (2 Bft) W-SW 247 0 min 5,3 C 21,5 km/h (4 Bft)
17.04.2016 08:30 8,9 C 8,9 C 78 % 1007,8 hPa 0,0 mm 7,5 km/h (2 Bft) W 270 0 min 5,3 C 8,0 km/h (2 Bft)
17.04.2016 08:35 9,1 C 9,0 C 77 % 1007,8 hPa 0,0 mm 7,7 km/h (2 Bft) W-SW 247 0 min 5,3 C 10,1 km/h (2 Bft)
17.04.2016 08:40 9,2 C 9,1 C 77 % 1007,8 hPa 0,0 mm 7,7 km/h (2 Bft) S-SO 157 0 min 5,4 C 11,9 km/h (2 Bft)
17.04.2016 08:45 9,3 C 9,1 C 76 % 1007,8 hPa 0,0 mm 9,8 km/h (2 Bft) O-SO 112 0 min 5,3 C 8,6 km/h (2 Bft)
17.04.2016 08:50 9,3 C 9,1 C 76 % 1007,6 hPa 0,0 mm 10,4 km/h (2 Bft) S-SO 157 0 min 5,3 C 11,9 km/h (2 Bft)
17.04.2016 08:55 9,3 C 9,3 C 75 % 1007,6 hPa 0,0 mm 8,3 km/h (2 Bft) SW 225 0 min 5,1 C 7,2 km/h (2 Bft)
17.04.2016 09:00 9,4 C 9,6 C 75 % 1007,6 hPa 0,0 mm 6,0 km/h (2 Bft) S 180 0 min 5,2 C 6,6 km/h (2 Bft)
17.04.2016 09:05 9,6 C 10,0 C 75 % 1007,6 hPa 0,0 mm 3,3 km/h (1 Bft) O-SO 112 0 min 5,4 C 0,0 km/h (0 Bft)
17.04.2016 09:10 9,6 C 10,3 C 75 % 1007,6 hPa 0,0 mm 3,6 km/h (1 Bft) S-SW 202 0 min 5,4 C 5,4 km/h (1 Bft)
17.04.2016 09:15 9,9 C 10,7 C 75 % 1007,6 hPa 0,0 mm 1,8 km/h (1 Bft) N-NO 22 0 min 5,7 C 0,0 km/h (0 Bft)
17.04.2016 09:20 10,0 C 10,8 C 75 % 1007,6 hPa 0,0 mm 0,9 km/h (0 Bft) O-NO 67 0 min 5,8 C 5,7 km/h (1 Bft)
17.04.2016 09:25 10,0 C 10,9 C 75 % 1007,6 hPa 0,0 mm 2,1 km/h (1 Bft) NO 45 0 min 5,8 C 4,5 km/h (1 Bft)
17.04.2016 09:30 10,1 C 11,0 C 75 % 1007,6 hPa 0,0 mm 3,9 km/h (1 Bft) N 360 0 min 5,9 C 11,3 km/h (2 Bft)
17.04.2016 09:35 10,1 C 11,0 C 75 % 1007,6 hPa 0,0 mm 5,7 km/h (1 Bft) W-NW 292 0 min 5,9 C 8,6 km/h (2 Bft)
17.04.2016 09:40 10,3 C 11,1 C 75 % 1007,6 hPa 0,0 mm 5,7 km/h (1 Bft) W 270 0 min 6,1 C 6,9 km/h (2 Bft)
17.04.2016 09:45 10,4 C 11,4 C 74 % 1007,6 hPa 0,0 mm 4,5 km/h (1 Bft) W 270 0 min 6,0 C 3,6 km/h (1 Bft)
17.04.2016 09:50 10,4 C 11,4 C 74 % 1007,7 hPa 0,0 mm 3,6 km/h (1 Bft) W-SW 247 0 min 6,0 C 6,9 km/h (2 Bft)
17.04.2016 09:55 10,6 C 11,6 C 74 % 1007,7 hPa 0,0 mm 1,8 km/h (1 Bft) W-NW 292 0 min 6,2 C 4,2 km/h (1 Bft)
17.04.2016 09:58 10,7 C 11,7 C 74 % 1007,7 hPa 0,0 mm 2,7 km/h (1 Bft) W-SW 247 0 min 6,3 C 4,8 km/h (1 Bft)
17.04.2016 10:01 10,7 C 11,7 C 74 % 1007,7 hPa 0,0 mm 2,7 km/h (1 Bft) W-SW 247 0 min 6,3 C 4,8 km/h (1 Bft)
17.04.2016 10:05 10,7 C 11,7 C 73 % 1007,7 hPa 0,0 mm 3,3 km/h (1 Bft) SW 225 0 min 6,1 C 8,0 km/h (2 Bft)
17.04.2016 10:10 10,7 C 11,6 C 73 % 1008,0 hPa 0,0 mm 3,3 km/h (1 Bft) SO 135 0 min 6,1 C 3,9 km/h (1 Bft)
17.04.2016 10:15 10,7 C 11,5 C 73 % 1008,0 hPa 0,0 mm 2,7 km/h (1 Bft) S 180 0 min 6,1 C 0,0 km/h (0 Bft)
17.04.2016 10:20 10,7 C 11,4 C 73 % 1008,0 hPa 0,0 mm 0,9 km/h (0 Bft) O-NO 67 0 min 6,1 C 0,0 km/h (0 Bft)
17.04.2016 10:25 10,7 C 11,4 C 73 % 1008,0 hPa 0,0 mm 1,2 km/h (1 Bft) SW 225 0 min 6,1 C 4,5 km/h (1 Bft)
17.04.2016 10:30 10,7 C 11,4 C 74 % 1008,4 hPa 0,0 mm 2,7 km/h (1 Bft) W-SW 247 0 min 6,3 C 7,7 km/h (2 Bft)
17.04.2016 10:35 10,7 C 11,1 C 74 % 1008,4 hPa 0,0 mm 3,3 km/h (1 Bft) W-SW 247 0 min 6,3 C 4,8 km/h (1 Bft)
17.04.2016 10:40 10,7 C 11,1 C 73 % 1008,4 hPa 0,0 mm 3,0 km/h (1 Bft) SW 225 0 min 6,1 C 6,3 km/h (2 Bft)
17.04.2016 10:45 10,6 C 10,7 C 74 % 1008,4 hPa 0,0 mm 2,7 km/h (1 Bft) W-NW 292 0 min 6,2 C 3,6 km/h (1 Bft)
17.04.2016 10:50 10,6 C 10,6 C 74 % 1008,7 hPa 0,0 mm 2,1 km/h (1 Bft) W 270 0 min 6,2 C 0,0 km/h (0 Bft)
17.04.2016 10:55 10,5 C 10,4 C 74 % 1008,7 hPa 0,0 mm 0,6 km/h (0 Bft) W 270 0 min 6,1 C 0,0 km/h (0 Bft)
17.04.2016 11:00 10,3 C 10,2 C 76 % 1008,7 hPa 0,0 mm 0,0 km/h (0 Bft) O-SO 112 0 min 6,3 C 0,0 km/h (0 Bft)
17.04.2016 11:05 9,9 C 9,8 C 79 % 1008,7 hPa 0,0 mm 0,3 km/h (0 Bft) O-NO 67 0 min 6,4 C 0,0 km/h (0 Bft)
17.04.2016 11:10 9,9 C 9,7 C 80 % 1009,1 hPa 0,0 mm 0,9 km/h (0 Bft) SW 225 0 min 6,6 C 4,2 km/h (1 Bft)
17.04.2016 11:15 10,1 C 9,9 C 77 % 1009,1 hPa 0,0 mm 3,0 km/h (1 Bft) W-NW 292 0 min 6,3 C 3,6 km/h (1 Bft)
17.04.2016 11:20 10,1 C 9,9 C 77 % 1009,1 hPa 0,7 mm 2,7 km/h (1 Bft) W-NW 292 0 min 6,3 C 0,0 km/h (0 Bft)
17.04.2016 11:25 10,1 C 10,0 C 78 % 1009,1 hPa 0,0 mm 0,6 km/h (0 Bft) W 270 0 min 6,4 C 0,0 km/h (0 Bft)
17.04.2016 11:30 10,1 C 10,2 C 78 % 1009,4 hPa 0,0 mm 0,3 km/h (0 Bft) N 360 0 min 6,4 C 0,0 km/h (0 Bft)
17.04.2016 11:35 10,1 C 10,0 C 81 % 1009,4 hPa 0,0 mm 0,0 km/h (0 Bft) S 180 0 min 7,0 C 0,0 km/h (0 Bft)
17.04.2016 11:40 10,0 C 10,0 C 79 % 1009,4 hPa 0,0 mm 0,3 km/h (0 Bft) W-SW 247 0 min 6,5 C 3,0 km/h (1 Bft)
17.04.2016 11:45 10,0 C 10,1 C 79 % 1009,4 hPa 0,0 mm 1,2 km/h (1 Bft) W-SW 247 0 min 6,5 C 4,5 km/h (1 Bft)
17.04.2016 11:50 10,0 C 10,1 C 79 % 1009,5 hPa 0,0 mm 1,5 km/h (1 Bft) S-SW 202 0 min 6,5 C 0,0 km/h (0 Bft)
17.04.2016 11:55 10,1 C 10,1 C 79 % 1009,5 hPa 0,0 mm 2,4 km/h (1 Bft) N 360 0 min 6,6 C 0,0 km/h (0 Bft)
17.04.2016 12:00 10,1 C 10,0 C 79 % 1009,5 hPa 0,0 mm 3,0 km/h (1 Bft) W-NW 292 0 min 6,6 C 6,3 km/h (2 Bft)
17.04.2016 12:05 10,1 C 10,2 C 79 % 1009,5 hPa 0,0 mm 2,7 km/h (1 Bft) S 180 0 min 6,6 C 3,9 km/h (1 Bft)
17.04.2016 12:10 10,2 C 10,1 C 79 % 1009,7 hPa 0,0 mm 5,1 km/h (1 Bft) SW 225 0 min 6,7 C 5,7 km/h (1 Bft)
17.04.2016 12:15 10,2 C 10,0 C 78 % 1009,7 hPa 0,0 mm 6,0 km/h (2 Bft) W-SW 247 0 min 6,5 C 6,9 km/h (2 Bft)
17.04.2016 12:20 10,1 C 10,0 C 78 % 1009,7 hPa 0,0 mm 4,8 km/h (1 Bft) W-SW 247 0 min 6,4 C 6,6 km/h (2 Bft)
17.04.2016 12:25 10,0 C 10,0 C 78 % 1009,7 hPa 0,0 mm 4,2 km/h (1 Bft) W 270 0 min 6,3 C 6,6 km/h (2 Bft)
17.04.2016 12:30 10,0 C 10,0 C 78 % 1009,9 hPa 0,0 mm 6,3 km/h (2 Bft) W-SW 247 0 min 6,3 C 9,8 km/h (2 Bft)
17.04.2016 12:35 10,1 C 10,1 C 78 % 1009,9 hPa 0,0 mm 8,0 km/h (2 Bft) W-SW 247 0 min 6,4 C 4,8 km/h (1 Bft)
17.04.2016 12:40 10,2 C 10,4 C 78 % 1009,9 hPa 0,0 mm 5,4 km/h (1 Bft) N-NW 337 0 min 6,5 C 0,0 km/h (0 Bft)
17.04.2016 12:45 10,2 C 10,2 C 78 % 1009,9 hPa 0,0 mm 3,6 km/h (1 Bft) S 180 0 min 6,5 C 10,4 km/h (2 Bft)
17.04.2016 12:50 10,1 C 10,1 C 78 % 1009,8 hPa 0,0 mm 5,4 km/h (1 Bft) W 270 0 min 6,4 C 11,9 km/h (2 Bft)
17.04.2016 12:55 10,0 C 10,1 C 78 % 1009,8 hPa 0,0 mm 6,6 km/h (2 Bft) S 180 0 min 6,3 C 11,6 km/h (2 Bft)
17.04.2016 13:00 9,9 C 10,1 C 78 % 1009,8 hPa 0,0 mm 5,7 km/h (1 Bft) W 270 0 min 6,2 C 4,5 km/h (1 Bft)
17.04.2016 13:03 9,9 C 10,1 C 78 % 1009,8 hPa 0,0 mm 5,1 km/h (1 Bft) SW 225 0 min 6,2 C 8,6 km/h (2 Bft)
17.04.2016 13:05 9,9 C 10,1 C 78 % 1009,8 hPa 0,0 mm 5,1 km/h (1 Bft) SW 225 0 min 6,2 C 8,6 km/h (2 Bft)
17.04.2016 13:10 9,9 C 10,1 C 79 % 1010,2 hPa 0,0 mm 4,5 km/h (1 Bft) W 270 0 min 6,4 C 12,8 km/h (3 Bft)
17.04.2016 13:15 10,0 C 10,3 C 79 % 1010,2 hPa 0,0 mm 4,2 km/h (1 Bft) SO 135 0 min 6,5 C 4,2 km/h (1 Bft)
17.04.2016 13:17 10,0 C 10,3 C 79 % 1010,2 hPa 0,0 mm 4,2 km/h (1 Bft) SO 135 0 min 6,5 C 4,2 km/h (1 Bft)
17.04.2016 13:20 10,0 C 10,1 C 79 % 1010,2 hPa 0,0 mm 4,5 km/h (1 Bft) W 270 0 min 6,5 C 8,9 km/h (2 Bft)
17.04.2016 13:25 9,9 C 10,0 C 79 % 1010,2 hPa 0,0 mm 4,8 km/h (1 Bft) W 270 0 min 6,4 C 5,7 km/h (1 Bft)
17.04.2016 13:30 9,9 C 10,0 C 79 % 1010,3 hPa 0,0 mm 5,4 km/h (1 Bft) W-SW 247 0 min 6,4 C 8,9 km/h (2 Bft)
17.04.2016 13:35 9,8 C 9,8 C 79 % 1010,3 hPa 0,0 mm 6,3 km/h (2 Bft) W-SW 247 0 min 6,3 C 7,7 km/h (2 Bft)
17.04.2016 13:40 9,8 C 9,7 C 79 % 1010,3 hPa 0,0 mm 6,9 km/h (2 Bft) W 270 0 min 6,3 C 5,1 km/h (1 Bft)
17.04.2016 13:45 9,7 C 9,8 C 79 % 1010,3 hPa 0,0 mm 6,6 km/h (2 Bft) W-SW 247 0 min 6,2 C 4,8 km/h (1 Bft)
17.04.2016 13:50 9,8 C 9,8 C 79 % 1010,2 hPa 0,0 mm 8,0 km/h (2 Bft) W-SW 247 0 min 6,3 C 6,9 km/h (2 Bft)
17.04.2016 13:55 9,7 C 9,5 C 79 % 1010,2 hPa 0,7 mm 9,5 km/h (2 Bft) W-SW 247 0 min 6,2 C 10,1 km/h (2 Bft)
17.04.2016 14:00 9,6 C 9,5 C 80 % 1010,2 hPa 0,0 mm 8,9 km/h (2 Bft) W-SW 247 0 min 6,3 C 8,6 km/h (2 Bft)
17.04.2016 14:05 9,6 C 9,4 C 80 % 1010,2 hPa 0,0 mm 9,8 km/h (2 Bft) NW 315 0 min 6,3 C 13,4 km/h (3 Bft)
17.04.2016 14:10 9,5 C 9,3 C 80 % 1010,7 hPa 0,0 mm 8,6 km/h (2 Bft) W 270 0 min 6,2 C 5,4 km/h (1 Bft)
17.04.2016 14:15 9,5 C 9,4 C 80 % 1010,7 hPa 0,0 mm 8,3 km/h (2 Bft) W-SW 247 0 min 6,2 C 11,0 km/h (2 Bft)
17.04.2016 14:20 9,5 C 9,4 C 80 % 1010,7 hPa 0,0 mm 8,3 km/h (2 Bft) W-NW 292 0 min 6,2 C 14,3 km/h (3 Bft)
17.04.2016 14:25 9,4 C 9,2 C 80 % 1010,7 hPa 0,0 mm 8,9 km/h (2 Bft) W-NW 292 0 min 6,1 C 25,6 km/h (4 Bft)
17.04.2016 14:30 9,3 C 9,0 C 80 % 1010,9 hPa 0,0 mm 10,4 km/h (2 Bft) SW 225 0 min 6,0 C 12,8 km/h (3 Bft)
17.04.2016 14:35 9,0 C 8,7 C 80 % 1010,9 hPa 0,0 mm 10,1 km/h (2 Bft) W-SW 247 0 min 5,7 C 9,5 km/h (2 Bft)
17.04.2016 14:40 8,9 C 8,7 C 80 % 1010,9 hPa 0,0 mm 8,9 km/h (2 Bft) W-SW 247 0 min 5,6 C 10,7 km/h (2 Bft)
17.04.2016 14:45 8,8 C 8,6 C 80 % 1010,9 hPa 0,0 mm 8,6 km/h (2 Bft) W 270 0 min 5,5 C 11,6 km/h (2 Bft)
17.04.2016 14:50 8,8 C 8,7 C 80 % 1011,2 hPa 0,7 mm 8,0 km/h (2 Bft) W 270 0 min 5,5 C 8,9 km/h (2 Bft)
17.04.2016 14:55 8,7 C 8,7 C 81 % 1011,2 hPa 0,0 mm 7,5 km/h (2 Bft) W-SW 247 0 min 5,6 C 7,5 km/h (2 Bft)
17.04.2016 15:00 8,8 C 8,8 C 81 % 1011,2 hPa 0,0 mm 8,0 km/h (2 Bft) W-SW 247 0 min 5,7 C 16,1 km/h (3 Bft)
17.04.2016 15:05 8,7 C 8,8 C 81 % 1011,2 hPa 0,0 mm 8,6 km/h (2 Bft) W-NW 292 0 min 5,6 C 12,2 km/h (2 Bft)
17.04.2016 15:10 8,8 C 9,0 C 81 % 1010,8 hPa 0,0 mm 8,3 km/h (2 Bft) SW 225 0 min 5,7 C 9,2 km/h (2 Bft)
17.04.2016 15:15 9,0 C 9,3 C 81 % 1010,8 hPa 0,0 mm 8,0 km/h (2 Bft) W-SW 247 0 min 5,9 C 12,2 km/h (2 Bft)
17.04.2016 15:20 9,1 C 9,4 C 81 % 1010,8 hPa 0,0 mm 8,3 km/h (2 Bft) W 270 0 min 6,0 C 9,2 km/h (2 Bft)
17.04.2016 15:25 8,9 C 9,0 C 81 % 1010,8 hPa 0,0 mm 9,2 km/h (2 Bft) W-NW 292 0 min 5,8 C 21,8 km/h (4 Bft)
17.04.2016 15:30 8,9 C 8,9 C 81 % 1010,7 hPa 0,0 mm 9,8 km/h (2 Bft) W 270 0 min 5,8 C 9,2 km/h (2 Bft)
17.04.2016 15:35 9,0 C 9,3 C 81 % 1010,7 hPa 0,0 mm 6,9 km/h (2 Bft) W-SW 247 0 min 5,9 C 3,0 km/h (1 Bft)
17.04.2016 15:40 9,0 C 9,2 C 81 % 1010,7 hPa 0,0 mm 4,8 km/h (1 Bft) W-SW 247 0 min 5,9 C 8,3 km/h (2 Bft)
17.04.2016 15:45 8,8 C 9,0 C 81 % 1010,7 hPa 0,0 mm 5,4 km/h (1 Bft) SW 225 0 min 5,7 C 12,5 km/h (3 Bft)
17.04.2016 15:50 8,8 C 9,0 C 81 % 1010,8 hPa 0,0 mm 5,7 km/h (1 Bft) W-SW 247 0 min 5,7 C 3,9 km/h (1 Bft)
17.04.2016 15:55 8,8 C 8,8 C 81 % 1010,8 hPa 0,0 mm 5,7 km/h (1 Bft) W 270 0 min 5,7 C 7,2 km/h (2 Bft)
17.04.2016 16:00 8,8 C 8,7 C 81 % 1010,8 hPa 0,7 mm 5,1 km/h (1 Bft) W 270 0 min 5,7 C 5,1 km/h (1 Bft)
17.04.2016 16:05 8,7 C 8,6 C 81 % 1010,8 hPa 0,0 mm 4,2 km/h (1 Bft) W 270 0 min 5,6 C 3,6 km/h (1 Bft)
17.04.2016 16:10 8,7 C 8,6 C 81 % 1010,8 hPa 0,0 mm 3,9 km/h (1 Bft) W 270 0 min 5,6 C 0,0 km/h (0 Bft)
17.04.2016 16:15 8,7 C 8,6 C 81 % 1010,8 hPa 0,0 mm 3,6 km/h (1 Bft) N-NO 22 0 min 5,6 C 0,0 km/h (0 Bft)
17.04.2016 16:18 8,7 C 8,6 C 81 % 1010,8 hPa 0,0 mm 3,0 km/h (1 Bft) W 270 0 min 5,6 C 5,4 km/h (1 Bft)
17.04.2016 16:20 8,7 C 8,6 C 81 % 1010,8 hPa 0,0 mm 3,0 km/h (1 Bft) W 270 0 min 5,6 C 5,4 km/h (1 Bft)
17.04.2016 16:25 8,6 C 8,5 C 82 % 1010,8 hPa 0,0 mm 2,4 km/h (1 Bft) W-NW 292 0 min 5,7 C 3,3 km/h (1 Bft)
17.04.2016 16:30 8,6 C 8,5 C 82 % 1010,8 hPa 0,0 mm 3,6 km/h (1 Bft) W-NW 292 0 min 5,7 C 3,6 km/h (1 Bft)
17.04.2016 16:35 8,5 C 8,4 C 82 % 1010,8 hPa 0,0 mm 3,6 km/h (1 Bft) W 270 0 min 5,6 C 6,3 km/h (2 Bft)
17.04.2016 16:40 8,4 C 8,3 C 82 % 1010,8 hPa 0,0 mm 3,3 km/h (1 Bft) W 270 0 min 5,5 C 0,0 km/h (0 Bft)
17.04.2016 16:45 8,3 C 8,2 C 82 % 1010,8 hPa 0,0 mm 3,9 km/h (1 Bft) W 270 0 min 5,4 C 5,1 km/h (1 Bft)
17.04.2016 16:50 8,3 C 8,2 C 82 % 1010,6 hPa 0,0 mm 3,3 km/h (1 Bft) NW 315 0 min 5,4 C 7,2 km/h (2 Bft)
17.04.2016 16:55 8,4 C 8,2 C 84 % 1010,6 hPa 0,0 mm 3,3 km/h (1 Bft) W 270 0 min 5,9 C 4,8 km/h (1 Bft)
17.04.2016 17:00 8,3 C 8,2 C 82 % 1010,6 hPa 0,0 mm 2,7 km/h (1 Bft) W-SW 247 0 min 5,4 C 0,0 km/h (0 Bft)
17.04.2016 17:05 8,3 C 8,2 C 82 % 1010,6 hPa 0,7 mm 2,1 km/h (1 Bft) W 270 0 min 5,4 C 3,0 km/h (1 Bft)
17.04.2016 17:10 8,3 C 8,2 C 82 % 1010,9 hPa 0,0 mm 3,3 km/h (1 Bft) NW 315 0 min 5,4 C 8,6 km/h (2 Bft)
17.04.2016 17:15 8,3 C 8,1 C 85 % 1010,9 hPa 0,0 mm 4,2 km/h (1 Bft) W 270 0 min 5,9 C 0,0 km/h (0 Bft)
17.04.2016 17:20 8,2 C 8,1 C 83 % 1010,9 hPa 0,0 mm 3,6 km/h (1 Bft) W-NW 292 0 min 5,5 C 0,0 km/h (0 Bft)
17.04.2016 17:25 8,2 C 8,1 C 85 % 1010,9 hPa 0,7 mm 2,1 km/h (1 Bft) W 270 0 min 5,8 C 0,0 km/h (0 Bft)
17.04.2016 17:30 8,2 C 8,1 C 83 % 1011,3 hPa 0,0 mm 2,1 km/h (1 Bft) W-SW 247 0 min 5,5 C 0,0 km/h (0 Bft)
17.04.2016 17:35 8,1 C 8,0 C 85 % 1011,3 hPa 0,7 mm 3,0 km/h (1 Bft) W 270 0 min 5,7 C 8,3 km/h (2 Bft)
17.04.2016 17:40 7,9 C 7,8 C 86 % 1011,3 hPa 0,7 mm 5,4 km/h (1 Bft) W-NW 292 0 min 5,7 C 14,9 km/h (3 Bft)
17.04.2016 17:45 7,7 C 7,4 C 86 % 1011,3 hPa 0,0 mm 8,9 km/h (2 Bft) W-NW 292 0 min 5,5 C 3,9 km/h (1 Bft)
17.04.2016 17:50 7,7 C 7,4 C 86 % 1012,1 hPa 0,7 mm 8,3 km/h (2 Bft) W-SW 247 0 min 5,5 C 7,5 km/h (2 Bft)
17.04.2016 17:55 7,6 C 7,4 C 87 % 1012,1 hPa 0,7 mm 7,5 km/h (2 Bft) W-NW 292 0 min 5,6 C 8,9 km/h (2 Bft)
17.04.2016 18:00 7,5 C 7,3 C 87 % 1012,1 hPa 0,0 mm 8,0 km/h (2 Bft) NW 315 0 min 5,5 C 12,2 km/h (2 Bft)
17.04.2016 18:05 7,4 C 7,0 C 87 % 1012,1 hPa 0,7 mm 9,2 km/h (2 Bft) NW 315 0 min 5,4 C 8,0 km/h (2 Bft)
17.04.2016 18:10 7,3 C 6,9 C 87 % 1012,1 hPa 0,0 mm 10,1 km/h (2 Bft) W-NW 292 0 min 5,3 C 18,8 km/h (3 Bft)
17.04.2016 18:15 7,0 C 6,7 C 86 % 1012,1 hPa 0,0 mm 7,5 km/h (2 Bft) SW 225 0 min 4,8 C 3,9 km/h (1 Bft)
17.04.2016 18:20 7,0 C 6,8 C 86 % 1012,1 hPa 0,7 mm 6,6 km/h (2 Bft) NW 315 0 min 4,8 C 8,0 km/h (2 Bft)
17.04.2016 18:25 6,9 C 6,7 C 87 % 1012,1 hPa 0,7 mm 4,5 km/h (1 Bft) W-SW 247 0 min 4,9 C 3,9 km/h (1 Bft)
17.04.2016 18:30 6,9 C 6,7 C 87 % 1012,3 hPa 0,0 mm 4,5 km/h (1 Bft) NW 315 0 min 4,9 C 4,5 km/h (1 Bft)
17.04.2016 18:35 6,5 C 6,3 C 86 % 1012,3 hPa 0,0 mm 6,0 km/h (2 Bft) W-NW 292 0 min 4,3 C 15,5 km/h (3 Bft)
17.04.2016 18:40 6,4 C 6,2 C 86 % 1012,3 hPa 0,7 mm 6,6 km/h (2 Bft) W 270 0 min 4,2 C 7,7 km/h (2 Bft)
17.04.2016 18:45 6,4 C 6,2 C 86 % 1012,3 hPa 0,0 mm 3,0 km/h (1 Bft) W-SW 247 0 min 4,2 C 3,6 km/h (1 Bft)
17.04.2016 18:50 6,3 C 6,1 C 86 % 1012,6 hPa 0,0 mm 2,1 km/h (1 Bft) W-SW 247 0 min 4,1 C 8,0 km/h (2 Bft)
17.04.2016 18:55 6,2 C 6,0 C 86 % 1012,6 hPa 0,0 mm 2,4 km/h (1 Bft) SO 135 0 min 4,0 C 0,0 km/h (0 Bft)
17.04.2016 19:00 6,1 C 5,9 C 86 % 1012,6 hPa 0,0 mm 1,8 km/h (1 Bft) SW 225 0 min 3,9 C 0,0 km/h (0 Bft)
17.04.2016 19:05 6,1 C 5,9 C 86 % 1012,6 hPa 0,0 mm 0,3 km/h (0 Bft) S-SO 157 0 min 3,9 C 0,0 km/h (0 Bft)
17.04.2016 19:10 6,0 C 5,8 C 86 % 1012,1 hPa 0,7 mm 0,3 km/h (0 Bft) SW 225 0 min 3,8 C 0,0 km/h (0 Bft)
17.04.2016 19:15 5,9 C 5,8 C 84 % 1012,1 hPa 0,0 mm 0,3 km/h (0 Bft) O 90 0 min 3,4 C 0,0 km/h (0 Bft)
17.04.2016 19:18 5,9 C 5,8 C 87 % 1012,1 hPa 0,0 mm 0,0 km/h (0 Bft) SW 225 0 min 3,9 C 0,0 km/h (0 Bft)
17.04.2016 19:20 5,9 C 5,8 C 87 % 1012,1 hPa 0,0 mm 0,0 km/h (0 Bft) SW 225 0 min 3,9 C 0,0 km/h (0 Bft)
17.04.2016 19:25 5,9 C 5,7 C 88 % 1012,1 hPa 0,0 mm 0,0 km/h (0 Bft) O 90 0 min 4,1 C 0,0 km/h (0 Bft)
17.04.2016 19:30 5,9 C 5,7 C 88 % 1012,4 hPa 0,0 mm 0,0 km/h (0 Bft) O-SO 112 0 min 4,1 C 0,0 km/h (0 Bft)
17.04.2016 19:35 5,8 C 5,7 C 89 % 1012,4 hPa 0,0 mm 0,0 km/h (0 Bft) O-NO 67 0 min 4,1 C 0,0 km/h (0 Bft)
17.04.2016 19:40 5,8 C 5,7 C 89 % 1012,4 hPa 0,0 mm 0,0 km/h (0 Bft) O-NO 67 0 min 4,1 C 0,0 km/h (0 Bft)
17.04.2016 19:45 5,7 C 5,6 C 89 % 1012,4 hPa 0,0 mm 0,0 km/h (0 Bft) O-NO 67 0 min 4,0 C 0,0 km/h (0 Bft)
17.04.2016 19:50 5,7 C 5,6 C 89 % 1012,3 hPa 0,0 mm 0,0 km/h (0 Bft) O-SO 112 0 min 4,0 C 0,0 km/h (0 Bft)
17.04.2016 19:55 5,7 C 5,6 C 89 % 1012,3 hPa 0,0 mm 0,0 km/h (0 Bft) NW 315 0 min 4,0 C 0,0 km/h (0 Bft)
17.04.2016 20:00 5,6 C 5,5 C 89 % 1012,3 hPa 0,0 mm 0,0 km/h (0 Bft) S-SO 157 0 min 3,9 C 0,0 km/h (0 Bft)
17.04.2016 20:05 5,6 C 5,5 C 89 % 1012,3 hPa 0,0 mm 0,0 km/h (0 Bft) SO 135 0 min 3,9 C 0,0 km/h (0 Bft)
17.04.2016 20:10 5,6 C 5,5 C 89 % 1012,8 hPa 0,7 mm 0,0 km/h (0 Bft) N-NO 22 0 min 3,9 C 0,0 km/h (0 Bft)
17.04.2016 20:15 5,6 C 5,5 C 89 % 1012,8 hPa 0,0 mm 0,0 km/h (0 Bft) W-SW 247 0 min 3,9 C 0,0 km/h (0 Bft)
17.04.2016 20:20 5,5 C 5,4 C 89 % 1012,8 hPa 0,0 mm 0,0 km/h (0 Bft) SW 225 0 min 3,8 C 0,0 km/h (0 Bft)
17.04.2016 20:25 5,5 C 5,4 C 89 % 1012,8 hPa 0,0 mm 0,0 km/h (0 Bft) O-NO 67 0 min 3,8 C 0,0 km/h (0 Bft)
17.04.2016 20:30 5,5 C 5,4 C 89 % 1012,9 hPa 0,0 mm 0,0 km/h (0 Bft) O-SO 112 0 min 3,8 C 0,0 km/h (0 Bft)
17.04.2016 20:35 5,5 C 5,4 C 90 % 1012,9 hPa 0,0 mm 0,0 km/h (0 Bft) W-NW 292 0 min 4,0 C 0,0 km/h (0 Bft)
17.04.2016 20:40 5,4 C 5,3 C 90 % 1012,9 hPa 0,7 mm 0,0 km/h (0 Bft) O 90 0 min 3,9 C 0,0 km/h (0 Bft)
17.04.2016 20:45 5,4 C 5,3 C 90 % 1012,9 hPa 0,0 mm 0,0 km/h (0 Bft) S 180 0 min 3,9 C 0,0 km/h (0 Bft)
17.04.2016 20:50 5,4 C 5,3 C 90 % 1013,2 hPa 0,0 mm 0,0 km/h (0 Bft) SW 225 0 min 3,9 C 0,0 km/h (0 Bft)
17.04.2016 20:55 5,3 C 5,2 C 90 % 1013,2 hPa 0,0 mm 0,0 km/h (0 Bft) W 270 0 min 3,8 C 0,0 km/h (0 Bft)
17.04.2016 21:00 5,3 C 5,2 C 90 % 1013,2 hPa 0,0 mm 0,0 km/h (0 Bft) SW 225 0 min 3,8 C 0,0 km/h (0 Bft)
17.04.2016 21:05 5,3 C 5,2 C 90 % 1013,2 hPa 0,0 mm 0,0 km/h (0 Bft) W 270 0 min 3,8 C 0,0 km/h (0 Bft)
17.04.2016 21:10 5,3 C 5,2 C 90 % 1013,6 hPa 0,0 mm 0,0 km/h (0 Bft) W 270 0 min 3,8 C 0,0 km/h (0 Bft)
17.04.2016 21:15 5,4 C 5,3 C 90 % 1013,6 hPa 0,7 mm 0,0 km/h (0 Bft) SW 225 0 min 3,9 C 0,0 km/h (0 Bft)
17.04.2016 21:20 5,4 C 5,3 C 90 % 1013,6 hPa 0,0 mm 0,0 km/h (0 Bft) N-NO 22 0 min 3,9 C 0,0 km/h (0 Bft)
17.04.2016 21:25 5,4 C 5,3 C 90 % 1013,6 hPa 0,0 mm 0,0 km/h (0 Bft) W 270 0 min 3,9 C 3,6 km/h (1 Bft)
17.04.2016 21:30 5,4 C 5,3 C 90 % 1014,1 hPa 0,0 mm 0,0 km/h (0 Bft) W-SW 247 0 min 3,9 C 0,0 km/h (0 Bft)
17.04.2016 21:35 5,4 C 5,3 C 90 % 1014,1 hPa 0,0 mm 0,0 km/h (0 Bft) W 270 0 min 3,9 C 0,0 km/h (0 Bft)
17.04.2016 21:40 5,4 C 5,3 C 90 % 1014,1 hPa 0,7 mm 0,0 km/h (0 Bft) O-SO 112 0 min 3,9 C 0,0 km/h (0 Bft)
17.04.2016 21:45 5,4 C 5,3 C 90 % 1014,1 hPa 0,0 mm 0,3 km/h (0 Bft) W-SW 247 0 min 3,9 C 0,0 km/h (0 Bft)
17.04.2016 21:50 5,4 C 5,3 C 90 % 1014,4 hPa 0,0 mm 0,3 km/h (0 Bft) W 270 0 min 3,9 C 0,0 km/h (0 Bft)
17.04.2016 21:55 5,5 C 5,4 C 90 % 1014,4 hPa 0,7 mm 0,0 km/h (0 Bft) W-SW 247 0 min 4,0 C 0,0 km/h (0 Bft)
17.04.2016 22:00 5,5 C 5,4 C 90 % 1014,4 hPa 0,0 mm 0,0 km/h (0 Bft) W-SW 247 0 min 4,0 C 0,0 km/h (0 Bft)
17.04.2016 22:05 5,5 C 5,4 C 90 % 1014,4 hPa 0,7 mm 0,9 km/h (0 Bft) W 270 0 min 4,0 C 3,6 km/h (1 Bft)
17.04.2016 22:10 5,4 C 5,3 C 90 % 1014,6 hPa 0,0 mm 2,1 km/h (1 Bft) W-NW 292 0 min 3,9 C 7,7 km/h (2 Bft)
17.04.2016 22:15 5,3 C 5,2 C 90 % 1014,6 hPa 0,0 mm 3,6 km/h (1 Bft) W-NW 292 0 min 3,8 C 3,3 km/h (1 Bft)
17.04.2016 22:18 5,3 C 5,2 C 90 % 1014,6 hPa 0,7 mm 3,6 km/h (1 Bft) SW 225 0 min 3,8 C 0,0 km/h (0 Bft)
17.04.2016 22:21 5,3 C 5,2 C 90 % 1014,6 hPa 0,0 mm 3,6 km/h (1 Bft) SW 225 0 min 3,8 C 0,0 km/h (0 Bft)
17.04.2016 22:25 5,1 C 5,1 C 86 % 1014,6 hPa 0,0 mm 2,7 km/h (1 Bft) SW 225 0 min 3,0 C 10,1 km/h (2 Bft)
17.04.2016 22:30 5,1 C 5,0 C 90 % 1015,3 hPa 0,0 mm 3,6 km/h (1 Bft) W-SW 247 0 min 3,6 C 5,7 km/h (1 Bft)
17.04.2016 22:35 5,0 C 4,8 C 89 % 1015,3 hPa 0,7 mm 3,6 km/h (1 Bft) N-NW 337 0 min 3,3 C 0,0 km/h (0 Bft)
17.04.2016 22:40 4,9 C 4,7 C 90 % 1015,3 hPa 0,0 mm 1,5 km/h (1 Bft) S-SW 202 0 min 3,4 C 0,0 km/h (0 Bft)
17.04.2016 22:45 4,9 C 4,7 C 90 % 1015,3 hPa 0,0 mm 0,9 km/h (0 Bft) SW 225 0 min 3,4 C 3,0 km/h (1 Bft)
17.04.2016 22:50 4,8 C 4,6 C 90 % 1014,8 hPa 0,0 mm 0,9 km/h (0 Bft) W-SW 247 0 min 3,3 C 0,0 km/h (0 Bft)
17.04.2016 22:55 4,8 C 4,6 C 90 % 1014,8 hPa 0,0 mm 0,6 km/h (0 Bft) S 180 0 min 3,3 C 0,0 km/h (0 Bft)
17.04.2016 23:00 4,8 C 4,6 C 90 % 1014,8 hPa 0,0 mm 0,6 km/h (0 Bft) S-SO 157 0 min 3,3 C 0,0 km/h (0 Bft)
17.04.2016 23:05 4,8 C 4,6 C 90 % 1014,8 hPa 0,0 mm 0,0 km/h (0 Bft) W 270 0 min 3,3 C 0,0 km/h (0 Bft)
17.04.2016 23:10 4,8 C 4,6 C 90 % 1015,0 hPa 0,7 mm 0,0 km/h (0 Bft) SW 225 0 min 3,3 C 0,0 km/h (0 Bft)
17.04.2016 23:15 4,7 C 4,5 C 90 % 1015,0 hPa 0,0 mm 0,0 km/h (0 Bft) SW 225 0 min 3,2 C 0,0 km/h (0 Bft)
17.04.2016 23:20 4,7 C 4,5 C 90 % 1015,0 hPa 0,0 mm 0,3 km/h (0 Bft) SO 135 0 min 3,2 C 3,9 km/h (1 Bft)
17.04.2016 23:25 4,7 C 4,5 C 90 % 1015,0 hPa 0,0 mm 0,9 km/h (0 Bft) W-NW 292 0 min 3,2 C 0,0 km/h (0 Bft)
17.04.2016 23:30 4,7 C 4,5 C 90 % 1015,6 hPa 0,7 mm 0,9 km/h (0 Bft) W-SW 247 0 min 3,2 C 3,3 km/h (1 Bft)
17.04.2016 23:35 4,7 C 4,5 C 90 % 1015,6 hPa 0,0 mm 0,3 km/h (0 Bft) S-SO 157 0 min 3,2 C 0,0 km/h (0 Bft)
17.04.2016 23:40 4,6 C 4,5 C 90 % 1015,6 hPa 0,0 mm 0,3 km/h (0 Bft) NW 315 0 min 3,1 C 0,0 km/h (0 Bft)
17.04.2016 23:45 4,6 C 4,5 C 90 % 1015,6 hPa 0,0 mm 0,0 km/h (0 Bft) SO 135 0 min 3,1 C 0,0 km/h (0 Bft)
17.04.2016 23:50 4,6 C 4,5 C 90 % 1015,1 hPa 0,7 mm 0,0 km/h (0 Bft) S 180 0 min 3,1 C 0,0 km/h (0 Bft)
17.04.2016 23:55 4,6 C 4,4 C 91 % 1015,1 hPa 0,0 mm 0,0 km/h (0 Bft) SO 135 0 min 3,3 C 0,0 km/h (0 Bft)
_ Min-Zeit 23:55 23:55 10:40 03:05 - 23:55 - - - 22:25 23:55
Minimum _ 4,6 C 4,4 C 73 % 1003,8 hPa - 0,0 km/h (0 Bft) - - - 3,0 C 0,0 km/h (0 Bft)
_ Max-Zeit 10:40 10:05 23:55 23:45 23:50 04:20 - - 23:55 11:35 04:35
Maximum _ 10,7 C 11,7 C 91 % 1015,6 hPa 0,7 mm 24,7 km/h
W (4 Bft)
- - 0 min 7,0 C 58,4 km/h
NW (7 Bft)
Durchschnitt _ 7,8 C 7,7 C 84 % 1009,3 hPa #17,9 mm 4,7 km/h (1 Bft) W - #0 min. 5,2 C 6,6 km/h (2 Bft)